Time,TemperatureF,DewpointF,PressureIn,WindDirection,WindDirectionDegrees,WindSpeedMPH,WindSpeedGustMPH,Humidity,HourlyPrecipIn,Conditions,Clouds,dailyrainin,SoftwareType,DateUTC
2013-02-01 00:10:00,6.0,0.0,30.35,WNW,294,5.0,25.0,75,0.00,,,0.00,weatherlink.com 1.10,2013-02-01 06:10:00,
2013-02-01 00:25:00,5.8,-1.0,30.36,WNW,293,15.0,21.0,73,0.00,,,0.00,weatherlink.com 1.10,2013-02-01 06:25:00,
2013-02-01 00:40:00,5.6,-1.0,30.37,NW,321,7.0,20.0,73,0.00,,,0.00,weatherlink.com 1.10,2013-02-01 06:40:00,
2013-02-01 00:55:00,5.5,-1.0,30.38,WNW,293,14.0,18.0,75,0.00,,,0.00,weatherlink.com 1.10,2013-02-01 06:55:00,
2013-02-01 01:10:00,5.4,0.0,30.37,NNW,340,10.0,17.0,77,0.00,,,0.00,weatherlink.com 1.10,2013-02-01 07:10:00,
2013-02-01 01:26:00,5.2,-1.0,30.38,WNW,284,9.0,18.0,74,0.00,,,0.00,weatherlink.com 1.10,2013-02-01 07:26:00,
2013-02-01 01:41:00,5.0,-2.0,30.39,WNW,299,8.0,17.0,74,0.00,,,0.00,weatherlink.com 1.10,2013-02-01 07:41:00,
2013-02-01 01:56:00,5.0,-2.0,30.40,WNW,287,6.0,19.0,74,0.00,,,0.00,weatherlink.com 1.10,2013-02-01 07:56:00,
2013-02-01 02:11:00,4.9,-2.0,30.41,NW,304,15.0,23.0,74,0.00,,,0.00,weatherlink.com 1.10,2013-02-01 08:11:00,
2013-02-01 02:26:00,4.8,-2.0,30.41,WNW,298,5.0,17.0,75,0.00,,,0.00,weatherlink.com 1.10,2013-02-01 08:26:00,
2013-02-01 02:41:00,5.0,0.0,30.41,NW,322,11.0,16.0,79,0.00,,,0.00,weatherlink.com 1.10,2013-02-01 08:41:00,
2013-02-01 02:56:00,5.0,0.0,30.41,WNW,302,11.0,17.0,79,0.00,,,0.00,weatherlink.com 1.10,2013-02-01 08:56:00,
2013-02-01 03:11:00,4.8,-1.0,30.41,West,280,7.0,18.0,78,0.00,,,0.00,weatherlink.com 1.10,2013-02-01 09:11:00,
2013-02-01 03:26:00,4.8,-1.0,30.40,NW,316,7.0,14.0,78,0.00,,,0.00,weatherlink.com 1.10,2013-02-01 09:26:00,
2013-02-01 03:41:00,4.6,-1.0,30.41,NW,304,9.0,14.0,78,0.00,,,0.00,weatherlink.com 1.10,2013-02-01 09:41:00,
2013-02-01 03:56:00,4.4,-1.0,30.41,West,273,7.0,15.0,79,0.00,,,0.00,weatherlink.com 1.10,2013-02-01 09:56:00,
2013-02-01 04:11:00,4.1,-1.0,30.41,North,350,7.0,17.0,79,0.00,,,0.00,weatherlink.com 1.10,2013-02-01 10:11:00,
2013-02-01 04:26:00,4.0,-1.0,30.41,WNW,286,8.0,21.0,79,0.00,,,0.00,weatherlink.com 1.10,2013-02-01 10:26:00,
2013-02-01 04:41:00,3.8,-2.0,30.41,WNW,285,11.0,16.0,78,0.00,,,0.00,weatherlink.com 1.10,2013-02-01 10:41:00,
2013-02-01 04:57:00,3.5,-2.0,30.42,WNW,300,11.0,17.0,77,0.00,,,0.00,weatherlink.com 1.10,2013-02-01 10:57:00,
2013-02-01 05:12:00,3.5,-2.0,30.42,WNW,302,11.0,14.0,78,0.00,,,0.00,weatherlink.com 1.10,2013-02-01 11:12:00,
2013-02-01 05:27:00,3.4,-2.0,30.43,West,275,10.0,16.0,79,0.00,,,0.00,weatherlink.com 1.10,2013-02-01 11:27:00,
2013-02-01 05:42:00,3.3,-2.0,30.43,West,263,7.0,12.0,79,0.00,,,0.00,weatherlink.com 1.10,2013-02-01 11:42:00,
2013-02-01 05:57:00,2.9,-2.0,30.43,WSW,254,7.0,17.0,79,0.00,,,0.00,weatherlink.com 1.10,2013-02-01 11:57:00,
2013-02-01 06:12:00,2.8,-3.0,30.44,North,350,5.0,15.0,78,0.00,,,0.00,weatherlink.com 1.10,2013-02-01 12:12:00,
2013-02-01 06:27:00,2.7,-3.0,30.44,NNW,339,3.0,14.0,78,0.00,,,0.00,weatherlink.com 1.10,2013-02-01 12:27:00,
2013-02-01 06:42:00,2.5,-3.0,30.44,North,11,6.0,16.0,77,0.00,,,0.00,weatherlink.com 1.10,2013-02-01 12:42:00,
2013-02-01 06:57:00,2.6,-2.0,30.45,West,276,11.0,11.0,81,0.00,,,0.00,weatherlink.com 1.10,2013-02-01 12:57:00,
2013-02-01 07:12:00,2.3,-3.0,30.45,NW,325,12.0,14.0,77,0.00,,,0.00,weatherlink.com 1.10,2013-02-01 13:12:00,
2013-02-01 07:27:00,2.1,-3.0,30.46,WNW,290,13.0,13.0,78,0.00,,,0.00,weatherlink.com 1.10,2013-02-01 13:27:00,
2013-02-01 07:42:00,2.2,-3.0,30.46,WNW,297,6.0,13.0,78,0.00,,,0.00,weatherlink.com 1.10,2013-02-01 13:42:00,
2013-02-01 07:57:00,2.3,-4.0,30.47,WNW,284,7.0,16.0,76,0.00,,,0.00,weatherlink.com 1.10,2013-02-01 13:57:00,
2013-02-01 08:12:00,2.6,-3.0,30.47,WNW,300,9.0,15.0,78,0.00,,,0.00,weatherlink.com 1.10,2013-02-01 14:12:00,
2013-02-01 08:28:00,2.8,-3.0,30.47,NW,309,10.0,13.0,76,0.00,,,0.00,weatherlink.com 1.10,2013-02-01 14:28:00,
2013-02-01 08:43:00,3.3,-2.0,30.48,WNW,284,3.0,11.0,77,0.00,,,0.00,weatherlink.com 1.10,2013-02-01 14:43:00,
2013-02-01 08:58:00,3.6,-2.0,30.48,WNW,300,7.0,11.0,77,0.00,,,0.00,weatherlink.com 1.10,2013-02-01 14:58:00,
2013-02-01 09:13:00,4.1,-2.0,30.48,West,273,8.0,13.0,77,0.00,,,0.00,weatherlink.com 1.10,2013-02-01 15:13:00,
2013-02-01 09:28:00,4.4,-2.0,30.48,WNW,286,5.0,13.0,76,0.00,,,0.00,weatherlink.com 1.10,2013-02-01 15:28:00,
2013-02-01 09:43:00,4.9,-1.0,30.48,West,279,5.0,11.0,75,0.00,,,0.00,weatherlink.com 1.10,2013-02-01 15:43:00,
2013-02-01 09:58:00,5.3,-1.0,30.48,NW,315,7.0,12.0,74,0.00,,,0.00,weatherlink.com 1.10,2013-02-01 15:58:00,
2013-02-01 10:13:00,5.9,-1.0,30.48,WSW,240,9.0,13.0,73,0.00,,,0.00,weatherlink.com 1.10,2013-02-01 16:13:00,
2013-02-01 10:28:00,6.5,-1.0,30.49,WNW,293,10.0,14.0,71,0.00,,,0.00,weatherlink.com 1.10,2013-02-01 16:28:00,
2013-02-01 10:43:00,7.3,0.0,30.49,SW,226,5.0,12.0,71,0.00,,,0.00,weatherlink.com 1.10,2013-02-01 16:43:00,
2013-02-01 10:58:00,7.1,-1.0,30.48,WNW,283,9.0,14.0,71,0.00,,,0.00,weatherlink.com 1.10,2013-02-01 16:58:00,
2013-02-01 11:13:00,8.0,0.0,30.48,WSW,241,7.0,18.0,70,0.00,,,0.00,weatherlink.com 1.10,2013-02-01 17:13:00,
2013-02-01 11:28:00,9.1,1.0,30.48,SW,227,5.0,16.0,70,0.00,,,0.00,weatherlink.com 1.10,2013-02-01 17:28:00,
2013-02-01 11:43:00,9.7,2.0,30.47,WSW,242,9.0,14.0,70,0.00,,,0.00,weatherlink.com 1.10,2013-02-01 17:43:00,
2013-02-01 11:59:00,11.0,3.0,30.46,West,281,5.0,11.0,69,0.00,,,0.00,weatherlink.com 1.10,2013-02-01 17:59:00,
2013-02-01 12:14:00,11.7,2.0,30.45,WSW,242,7.0,14.0,65,0.00,,,0.00,weatherlink.com 1.10,2013-02-01 18:14:00,
2013-02-01 12:29:00,12.1,3.0,30.44,WNW,301,4.0,11.0,66,0.00,,,0.00,weatherlink.com 1.10,2013-02-01 18:29:00,
2013-02-01 12:59:00,13.9,3.0,30.43,WNW,285,13.0,15.0,63,0.00,,,0.00,weatherlink.com 1.10,2013-02-01 18:59:00,
2013-02-01 13:14:00,14.3,3.0,30.42,SW,236,6.0,13.0,62,0.00,,,0.00,weatherlink.com 1.10,2013-02-01 19:14:00,
2013-02-01 13:29:00,14.9,4.0,30.41,SSW,194,6.0,15.0,63,0.00,,,0.00,weatherlink.com 1.10,2013-02-01 19:29:00,
2013-02-01 13:44:00,16.0,5.0,30.40,WNW,298,3.0,10.0,62,0.00,,,0.00,weatherlink.com 1.10,2013-02-01 19:44:00,
2013-02-01 13:59:00,16.3,5.0,30.39,SSW,206,4.0,14.0,61,0.00,,,0.00,weatherlink.com 1.10,2013-02-01 19:59:00,
2013-02-01 14:14:00,17.0,5.0,30.40,SW,217,4.0,15.0,60,0.00,,,0.00,weatherlink.com 1.10,2013-02-01 20:14:00,
2013-02-01 14:29:00,18.0,6.0,30.40,SW,225,3.0,15.0,60,0.00,,,0.00,weatherlink.com 1.10,2013-02-01 20:29:00,
2013-02-01 14:44:00,17.5,6.0,30.39,SW,218,9.0,12.0,61,0.00,,,0.00,weatherlink.com 1.10,2013-02-01 20:44:00,
2013-02-01 14:59:00,17.3,7.0,30.39,West,269,11.0,13.0,63,0.00,,,0.00,weatherlink.com 1.10,2013-02-01 20:59:00,
2013-02-01 15:15:00,17.0,6.0,30.38,WSW,242,8.0,13.0,61,0.00,,,0.00,weatherlink.com 1.10,2013-02-01 21:15:00,
2013-02-01 15:30:00,17.4,7.0,30.38,SSW,199,7.0,10.0,64,0.00,,,0.00,weatherlink.com 1.10,2013-02-01 21:30:00,
2013-02-01 15:45:00,16.9,6.0,30.38,SW,233,7.0,11.0,62,0.00,,,0.00,weatherlink.com 1.10,2013-02-01 21:45:00,
2013-02-01 16:00:00,16.6,6.0,30.37,West,267,6.0,11.0,62,0.00,,,0.00,weatherlink.com 1.10,2013-02-01 22:00:00,
2013-02-01 16:30:00,16.8,7.0,30.37,West,261,5.0,11.0,64,0.00,,,0.00,weatherlink.com 1.10,2013-02-01 22:30:00,
2013-02-01 16:45:00,17.0,7.0,30.35,WSW,252,0.0,11.0,66,0.00,,,0.00,weatherlink.com 1.10,2013-02-01 22:45:00,
2013-02-01 17:00:00,17.2,8.0,30.35,SSW,193,3.0,12.0,66,0.00,,,0.00,weatherlink.com 1.10,2013-02-01 23:00:00,
2013-02-01 17:15:00,17.4,8.0,30.35,WSW,237,4.0,10.0,66,0.00,,,0.00,weatherlink.com 1.10,2013-02-01 23:15:00,
2013-02-01 17:30:00,17.5,7.0,30.34,South,179,4.0,10.0,64,0.00,,,0.00,weatherlink.com 1.10,2013-02-01 23:30:00,
2013-02-01 17:45:00,17.5,8.0,30.35,South,175,3.0,10.0,65,0.00,,,0.00,weatherlink.com 1.10,2013-02-01 23:45:00,
2013-02-01 18:00:00,17.5,7.0,30.34,South,190,6.0,11.0,64,0.00,,,0.00,weatherlink.com 1.10,2013-02-02 00:00:00,
2013-02-01 18:15:00,17.6,7.0,30.34,SW,231,3.0,9.0,64,0.00,,,0.00,weatherlink.com 1.10,2013-02-02 00:15:00,
2013-02-01 18:30:00,17.9,8.0,30.33,SW,218,3.0,9.0,64,0.00,,,0.00,weatherlink.com 1.10,2013-02-02 00:30:00,
2013-02-01 18:46:00,18.0,7.0,30.32,SSW,197,4.0,10.0,63,0.00,,,0.00,weatherlink.com 1.10,2013-02-02 00:46:00,
2013-02-01 19:01:00,18.4,7.0,30.32,SSE,164,4.0,10.0,62,0.00,,,0.00,weatherlink.com 1.10,2013-02-02 01:01:00,
2013-02-01 19:16:00,18.6,7.0,30.30,SSE,149,5.0,12.0,62,0.00,,,0.00,weatherlink.com 1.10,2013-02-02 01:16:00,
2013-02-01 19:31:00,18.7,8.0,30.30,SE,144,4.0,11.0,62,0.00,,,0.00,weatherlink.com 1.10,2013-02-02 01:31:00,
2013-02-01 19:46:00,19.0,8.0,30.29,SE,146,7.0,12.0,63,0.00,,,0.00,weatherlink.com 1.10,2013-02-02 01:46:00,
2013-02-01 20:01:00,19.3,9.0,30.28,SSE,147,7.0,13.0,63,0.00,,,0.00,weatherlink.com 1.10,2013-02-02 02:01:00,
2013-02-01 20:16:00,19.8,9.0,30.27,SSE,162,6.0,11.0,64,0.00,,,0.00,weatherlink.com 1.10,2013-02-02 02:16:00,
2013-02-01 20:31:00,19.8,10.0,30.26,SSW,194,7.0,14.0,65,0.00,,,0.00,weatherlink.com 1.10,2013-02-02 02:31:00,
2013-02-01 20:46:00,20.1,10.0,30.26,SSE,158,6.0,11.0,66,0.00,,,0.00,weatherlink.com 1.10,2013-02-02 02:46:00,
2013-02-01 21:01:00,20.3,11.0,30.25,South,173,5.0,14.0,67,0.00,,,0.00,weatherlink.com 1.10,2013-02-02 03:01:00,
2013-02-01 21:16:00,20.7,11.0,30.24,SE,145,13.0,13.0,67,0.00,,,0.00,weatherlink.com 1.10,2013-02-02 03:16:00,
2013-02-01 21:31:00,21.1,11.0,30.23,SSE,163,9.0,18.0,66,0.00,,,0.00,weatherlink.com 1.10,2013-02-02 03:31:00,
2013-02-01 21:46:00,21.2,12.0,30.24,SSE,158,5.0,14.0,69,0.00,,,0.00,weatherlink.com 1.10,2013-02-02 03:46:00,
2013-02-01 22:01:00,21.0,15.0,30.23,South,179,9.0,12.0,77,0.00,,,0.00,weatherlink.com 1.10,2013-02-02 04:01:00,
2013-02-01 22:17:00,20.6,16.0,30.23,South,173,6.0,18.0,82,0.00,,,0.00,weatherlink.com 1.10,2013-02-02 04:17:00,
2013-02-01 22:32:00,20.6,17.0,30.22,SSW,202,7.0,14.0,84,0.00,,,0.00,weatherlink.com 1.10,2013-02-02 04:32:00,
2013-02-01 22:47:00,20.6,17.0,30.23,SSE,165,4.0,9.0,87,0.00,,,0.00,weatherlink.com 1.10,2013-02-02 04:47:00,
2013-02-01 23:02:00,20.6,18.0,30.24,SW,232,3.0,9.0,88,0.00,,,0.00,weatherlink.com 1.10,2013-02-02 05:02:00,
2013-02-01 23:17:00,20.7,18.0,30.23,South,184,8.0,9.0,89,0.00,,,0.00,weatherlink.com 1.10,2013-02-02 05:17:00,
2013-02-01 23:32:00,21.1,19.0,30.23,South,175,3.0,10.0,90,0.00,,,0.00,weatherlink.com 1.10,2013-02-02 05:32:00,
2013-02-01 23:47:00,21.3,19.0,30.22,South,172,11.0,11.0,90,0.00,,,0.00,weatherlink.com 1.10,2013-02-02 05:47:00,